[[{"header":{"parameterUnit":"m.s-1","parameterCategory":1,"la1":30.2992,"la2":30.254,"lo1":-89.0895,"lo2":-89.0443,"dy":0.0025,"dx":0.0025,"nx":19,"ny":19,"refTime":"2026-04-16T21:00:00:Z","depth":0,"parameterNumber":2,"parameterNumberName":"U-component_of_WINDS"},"data":[0,0,0,1.6118,1.612,1.6187,1.6187,1.6275,1.6276,0,0,0,0,0,0,0,0,0,0,0,1.6101,1.6101,1.6118,1.612,1.6187,1.6187,1.6275,1.6276,0,0,0,0,0,0,0,0,0,0,0,1.61,1.6101,1.6102,1.612,1.6187,1.6187,1.6275,1.6223,0,0,0,0,0,0,0,0,0,0,1.6158,1.6144,1.6101,1.6102,1.6121,1.6187,1.6187,1.6221,1.6227,1.6246,0,1.6265,0,1.6272,1.6282,1.6283,0,0,0,1.6118,1.6139,1.6155,1.6102,1.6121,1.6187,1.6156,1.6224,1.6231,1.6254,1.6266,1.6269,1.6273,1.6283,1.6283,1.6402,1.6402,0,0,1.6115,1.6114,1.6151,1.6159,1.615,1.6154,1.6158,1.6228,1.6241,1.6266,1.6271,1.6275,1.6283,1.6284,1.6401,1.6402,0,0,0,1.6105,1.6111,1.6126,1.6156,1.6168,1.6156,1.6161,1.6238,1.6243,1.6272,1.6276,1.6284,1.6285,1.64,1.6401,1.6431,0,0,0,1.6103,1.6106,1.6124,1.6124,1.6167,1.6204,1.6169,1.6238,1.6246,1.6275,1.6284,1.6286,1.64,1.6401,1.6429,1.6445,0,0,0,1.6096,1.6105,1.6115,1.6124,1.6153,1.6203,1.6211,1.6239,1.6248,1.6283,1.6286,1.6399,1.6401,1.6427,1.6441,1.6474,0,0,0,1.6087,1.6141,1.6116,1.6178,1.6152,1.6221,1.6211,1.6262,1.6296,1.6284,1.64,1.6401,1.6426,1.6439,1.6472,1.6501,1.6513,0,0,1.6155,1.615,1.6186,1.6165,1.6238,1.6211,1.6288,1.6319,1.6323,1.6375,1.6378,1.6429,1.6441,1.6474,1.6585,1.6595,0,0,0,1.6207,1.6233,1.6252,1.6284,1.6309,1.6331,1.6351,1.6363,1.6406,1.635,1.6451,1.6458,1.6477,1.6491,1.6499,1.6515,1.6408,1.6408,1.6408,1.6301,1.6303,1.6362,1.6372,1.6403,1.6422,1.6447,1.6465,1.6459,1.6483,1.6498,1.6565,1.6581,1.6587,1.6604,1.6514,1.6515,1.6515,1.6515,1.6398,1.6434,1.6424,1.6478,1.648,1.6525,1.6545,1.6539,1.6581,1.6554,1.6571,1.6541,1.6598,1.6612,1.6517,1.6517,1.6516,1.6516,1.6516,1.6458,1.6476,1.6489,1.6534,1.6568,1.6577,1.6617,1.6617,1.6618,1.6635,1.6649,1.6649,1.6647,1.6642,1.6642,1.6643,1.6643,1.6643,1.6643,1.6515,1.6529,1.6563,1.6593,1.6613,1.6639,1.6658,1.6677,1.6698,1.6695,1.6695,1.6685,1.6604,1.6582,1.6647,1.6646,1.6646,1.6645,1.6645,1.661,1.6589,1.6641,1.666,1.6696,1.6729,1.6729,1.6768,1.6784,1.6803,1.679,1.673,1.6724,1.6717,1.6699,1.679,1.679,1.679,1.679,1.6659,1.6657,1.671,1.6741,1.6771,1.6777,1.6834,1.6849,1.6861,1.6871,1.6858,1.6835,1.6828,1.6826,1.6817,1.6801,1.6915,1.6915,1.6915,1.6717,1.6718,1.6767,1.6779,1.6806,1.6829,1.6883,1.6918,1.6927,1.692,1.6878,1.6873,1.6835,1.6823,1.6814,1.68,1.6769,0,0]},{"header":{"parameterUnit":"m.s-1","parameterCategory":1,"la1":30.2992,"la2":30.254,"lo1":-89.0895,"lo2":-89.0443,"dy":0.0025,"dx":0.0025,"nx":19,"ny":19,"refTime":"2026-04-16T21:00:00:Z","depth":0,"parameterNumber":3,"parameterNumberName":"V-component_of_WINDS"},"data":[0,0,0,2.3856,2.3861,2.4096,2.4097,2.4378,2.4381,0,0,0,0,0,0,0,0,0,0,0,2.3774,2.3776,2.3855,2.3861,2.4096,2.4097,2.4378,2.4381,0,0,0,0,0,0,0,0,0,0,0,2.3773,2.3775,2.3777,2.3862,2.4096,2.4097,2.4377,2.4207,0,0,0,0,0,0,0,0,0,0,2.3982,2.3895,2.3775,2.3777,2.3863,2.4095,2.4097,2.4199,2.4217,2.4263,0,2.43,0,2.4345,2.4398,2.4399,0,0,0,2.387,2.3879,2.3953,2.3777,2.3865,2.4095,2.3993,2.421,2.423,2.4288,2.4305,2.4316,2.435,2.44,2.4401,2.4634,2.4635,0,0,2.3857,2.381,2.3939,2.3966,2.3928,2.3985,2.4,2.4223,2.4238,2.4306,2.4323,2.4354,2.4402,2.4404,2.4633,2.4634,0,0,0,2.3814,2.38,2.387,2.3954,2.3998,2.3991,2.4009,2.4228,2.4255,2.4326,2.4357,2.4403,2.4406,2.4633,2.4634,2.462,0,0,0,2.3806,2.3775,2.3864,2.3837,2.3993,2.4116,2.4009,2.4239,2.4266,2.4356,2.4403,2.4409,2.4632,2.4633,2.4619,2.4622,0,0,0,2.3763,2.377,2.38,2.3834,2.3934,2.4114,2.4153,2.4246,2.4285,2.4399,2.441,2.4632,2.4633,2.4618,2.462,2.4669,0,0,0,2.3703,2.3785,2.3799,2.3903,2.3931,2.4103,2.4152,2.4283,2.4379,2.4404,2.4632,2.4634,2.4618,2.4619,2.4667,2.4701,2.471,0,0,2.378,2.3793,2.3858,2.3877,2.4034,2.4071,2.4227,2.436,2.4415,2.4558,2.4564,2.4619,2.462,2.4668,2.4781,2.4788,0,0,0,2.3866,2.3912,2.3964,2.4054,2.4157,2.4246,2.4361,2.441,2.4534,2.4478,2.4652,2.4654,2.4684,2.4702,2.4708,2.4737,2.464,2.464,2.464,2.3907,2.3972,2.4084,2.4177,2.4263,2.438,2.4456,2.4543,2.4584,2.4623,2.4666,2.4726,2.4746,2.4751,2.478,2.4689,2.4689,2.4689,2.4689,2.4026,2.4101,2.4153,2.428,2.4348,2.4455,2.4571,2.4596,2.4706,2.47,2.473,2.4716,2.4757,2.4786,2.4689,2.4689,2.4689,2.4689,2.4689,2.406,2.4107,2.4166,2.4302,2.44,2.4492,2.4595,2.4653,2.4709,2.4739,2.479,2.4791,2.4798,2.4759,2.476,2.476,2.476,2.476,2.476,2.4071,2.4138,2.4217,2.4334,2.4399,2.4493,2.4611,2.4677,2.4765,2.48,2.4801,2.4836,2.4749,2.4725,2.4764,2.4763,2.4763,2.4762,2.4762,2.4166,2.4154,2.4277,2.4342,2.4484,2.4577,2.4651,2.478,2.4843,2.4892,2.4922,2.4848,2.4865,2.486,2.4841,2.4908,2.4908,2.4908,2.4908,2.4194,2.4208,2.4347,2.4447,2.4553,2.4632,2.4769,2.4862,2.4956,2.4999,2.4998,2.4978,2.4971,2.4992,2.4985,2.4968,2.5065,2.5065,2.5066,2.4256,2.4283,2.4388,2.448,2.4596,2.4693,2.4824,2.4937,2.5042,2.5073,2.5034,2.5027,2.4995,2.4982,2.5011,2.4998,2.4968,0,0]}]]